Location: *
(41.7492°S, 135.4150°W)
Time: 01:40:33
(UTC+00:00)

ITAMSAT 1 - Pass Details

Date: 28 June 2022
Orbit: 784 x 795 km, 98.9° (Epoch: 09 August)

Event Time Altitude Azimuth Distance (km) Brightness Sun altitude
Rises 15:04:01 0° 45° (NE) 3,298 12.0 -15.4°
Reaches altitude 10° 15:06:35 10° 55° (NE) 2,375 11.4 -15.0°
Maximum altitude 15:11:05 30° 114° (ESE) 1,419 9.5 -14.2°
Drops below altitude 10° 15:15:37 10° 173° (S) 2,396 10.0 -13.4°
Sets 15:18:12 0° 183° (S) 3,331 10.7 -12.9°
